[[{"header":{"parameterUnit":"m.s-1","parameterCategory":2,"la1":30.2991,"la2":30.254,"lo1":-89.0895,"lo2":-89.0444,"dy":0.0017,"dx":0.0017,"nx":28,"ny":28,"refTime":"2025-04-14T21:00:00:Z","depth":"0","parameterNumber":2,"parameterNumberName":"U-component_of_CURRENTS"},"data":[0,0,0,0,0,0,0,0,0,0,0,0,0,0,0,0,0,0,0,0,0,0,0,0,0,0,0,0,0,0,0,0,0,0,0,0,0,0,0,0,0,0,0,0,0,0,0,0,0,0,0,0,0,0,0,0,0,0,0.3823,0.3826,0,0.4031,0.4032,0.4034,0.4013,0.401,0.4008,0.4006,0.4054,0.4057,0.4061,0,0,0,0,0,0,0,0,0,0,0,0,0,0.3513,0.3517,0.3823,0.3826,0.383,0.403,0.4032,0.4034,0.4013,0.401,0.4007,0.4005,0.4053,0.4057,0.4061,0,0,0,0,0,0,0,0,0,0,0,0,0,0.3667,0.3518,0.3822,0.385,0.3856,0.403,0.4032,0.4035,0.4014,0.401,0.4007,0.4003,0.4051,0.4056,0.4062,0.4165,0,0,0.4078,0.408,0,0,0,0,0,0,0,0,0.3658,0.3677,0.3843,0.3849,0.3855,0.4,0.3941,0.4074,0.4015,0.3944,0.4006,0.4002,0.403,0.4037,0.4073,0.4168,0.417,0.4078,0.4081,0.4084,0.4085,0,0,0,0,0,0,0,0.3647,0.3669,0.3895,0.3847,0.3855,0.389,0.3905,0.3967,0.3994,0.395,0.3951,0.399,0.403,0.4068,0.4073,0.417,0.4078,0.4083,0.4086,0.4088,0.4326,0.4329,0,0,0,0,0,0,0.3641,0.3659,0.3889,0.3902,0.3757,0.3898,0.3916,0.395,0.3997,0.4005,0.3993,0.3989,0.4061,0.4067,0.4075,0.4192,0.4084,0.4088,0.4091,0.4323,0.4327,0.433,0,0,0,0,0,0,0.3633,0.3659,0.3881,0.3793,0.3824,0.3907,0.3946,0.3956,0.3988,0.4034,0.4035,0.4015,0.4058,0.4067,0.4138,0.4193,0.4091,0.4096,0.4319,0.4324,0.4329,0.443,0,0,0,0,0,0,0.3623,0.3655,0.3685,0.3792,0.383,0.4025,0.3951,0.3963,0.4023,0.4019,0.4054,0.4055,0.4056,0.413,0.4143,0.4198,0.41,0.4315,0.4321,0.4327,0.4423,0.4438,0.4451,0,0,0,0,0,0.3611,0.3699,0.3685,0.3715,0.3866,0.4031,0.4055,0.4093,0.4028,0.4094,0.4083,0.4054,0.4176,0.4138,0.4152,0.421,0.4312,0.432,0.4327,0.4417,0.4435,0.445,0,0,0,0,0,0,0.3602,0.3709,0.3696,0.3812,0.392,0.4031,0.4109,0.4103,0.4151,0.4121,0.4108,0.4114,0.4202,0.4198,0.4155,0.4296,0.4236,0.4246,0.4299,0.4317,0.433,0.4307,0.4104,0,0,0,0,0,0.3609,0.3684,0.3795,0.389,0.3946,0.4012,0.4077,0.41,0.4159,0.4174,0.4191,0.4204,0.4252,0.4271,0.4327,0.4408,0.4421,0.4451,0.4465,0.4476,0.4469,0.4561,0.4582,0.4354,0.4354,0.4354,0,0,0.3629,0.3703,0.3743,0.3891,0.3965,0.4072,0.4042,0.4163,0.4216,0.4175,0.4247,0.4272,0.429,0.4384,0.4419,0.4377,0.4554,0.4485,0.4495,0.448,0.457,0.4592,0.4612,0.4359,0.4358,0.4357,0,0,0.3741,0.3776,0.388,0.3966,0.4097,0.4141,0.4171,0.428,0.4295,0.4384,0.4355,0.4403,0.4482,0.4505,0.4519,0.4645,0.4638,0.4666,0.4705,0.4797,0.4816,0.4832,0.4895,0.4917,0.4656,0.4656,0.4656,0,0.3756,0.3885,0.3946,0.4067,0.4135,0.4163,0.4275,0.4322,0.4426,0.4447,0.4418,0.4525,0.4537,0.4623,0.4654,0.4676,0.4718,0.4637,0.4814,0.4831,0.4846,0.4906,0.4929,0.4662,0.4661,0.4661,0.466,0,0.3953,0.4029,0.4111,0.4232,0.4322,0.4435,0.4496,0.4554,0.4544,0.4575,0.4666,0.4692,0.4741,0.4763,0.4738,0.4857,0.485,0.4835,0.4766,0.4875,0.4932,0.4953,0.467,0.4668,0.4667,0.4665,0,0,0.4026,0.4205,0.4222,0.4267,0.4401,0.449,0.4579,0.4679,0.4701,0.4776,0.4831,0.4901,0.4888,0.4903,0.4898,0.4951,0.5092,0.4931,0.4934,0.4983,0.5292,0.5209,0.5223,0.5119,0.5123,0.5126,0.5294,0,0.4145,0.4354,0.4414,0.4553,0.4648,0.4674,0.4748,0.4818,0.4846,0.4908,0.4926,0.4986,0.495,0.4967,0.5027,0.5081,0.5151,0.5046,0.5186,0.5189,0.5094,0.5246,0.4963,0.5082,0.5314,0.5318,0.532,0,0.4302,0.4409,0.4578,0.4664,0.4707,0.4776,0.4852,0.4927,0.5001,0.502,0.5078,0.5089,0.5177,0.512,0.5279,0.5221,0.5265,0.5294,0.5302,0.5194,0.5146,0.5009,0.5112,0.4927,0.5352,0.535,0.5348,0,0.4313,0.4496,0.4609,0.4655,0.4785,0.4826,0.4881,0.4959,0.5,0.5089,0.5127,0.5225,0.5277,0.5366,0.5415,0.5371,0.5582,0.5532,0.5504,0.5498,0.5265,0.5231,0.5186,0.566,0.566,0.5659,0.5659,0,0.4397,0.4469,0.461,0.4665,0.4752,0.4841,0.4909,0.4967,0.5049,0.5099,0.5177,0.5239,0.5344,0.5455,0.5491,0.5575,0.5663,0.5541,0.5552,0.5294,0.5262,0.5092,0.5044,0.5665,0.5664,0.5663,0.5662,0,0.4376,0.4482,0.4591,0.4725,0.4757,0.4813,0.4904,0.4944,0.5041,0.5115,0.5149,0.5294,0.5431,0.5527,0.5676,0.5666,0.5583,0.5753,0.5427,0.5396,0.5145,0.5114,0.5003,0.4868,0.5745,0.5745,0.5744,0,0.4389,0.4455,0.4597,0.464,0.4689,0.4775,0.4815,0.4917,0.4951,0.5132,0.516,0.5334,0.5414,0.5622,0.5627,0.5706,0.5551,0.5495,0.5344,0.5118,0.5094,0.4949,0.4833,0.5088,0.5082,0.5077,0.5073,0,0.439,0.4434,0.452,0.4603,0.4653,0.4696,0.4762,0.478,0.4898,0.4976,0.5079,0.5175,0.536,0.5312,0.5436,0.5441,0.5195,0.5396,0.5249,0.4656,0.4409,0.4285,0.4988,0.5029,0.5034,0.5037,0.5039,0.5041,0.4369,0.4406,0.4507,0.4554,0.4596,0.4579,0.455,0.4616,0.4651,0.469,0.4899,0.4923,0.4991,0.5104,0.5109,0.4851,0.4924,0.4651,0.4663,0.4562,0.4317,0.4921,0.4918,0.4922,0.4925,0.4928,0.493,0,0.4341,0.4384,0.4445,0.4472,0.4431,0.4484,0.4475,0.4397,0.436,0.4446,0.4508,0.4443,0.4417,0.443,0.429,0.4131,0.3966,0.3991,0.3687,0.3636,0.4232,0.4081,0.3787,0.3787,0.3787,0.3787,0.3788,0.3788,0.4343,0.437,0.4382,0.4295,0.4277,0.4139,0.4084,0.4001,0.3989,0.3843,0.3739,0.3798,0.3892,0.3868,0.3642,0.355,0.3294,0.3131,0.3212,0.3573,0.3632,0.3688,0.3531,0.3126,0.3126,0.2387,0.2382,0.2377]},{"header":{"parameterUnit":"m.s-1","parameterCategory":2,"la1":30.2991,"la2":30.254,"lo1":-89.0895,"lo2":-89.0444,"dy":0.0017,"dx":0.0017,"nx":28,"ny":28,"refTime":"2025-04-14T21:00:00:Z","depth":"0","parameterNumber":3,"parameterNumberName":"V-component_of_CURRENTS"},"data":[0,0,0,0,0,0,0,0,0,0,0,0,0,0,0,0,0,0,0,0,0,0,0,0,0,0,0,0,0,0,0,0,0,0,0,0,0,0,0,0,0,0,0,0,0,0,0,0,0,0,0,0,0,0,0,0,0,0,0.0088,0.0089,0,0.0136,0.0136,0.0137,0.0106,0.0104,0.0103,0.0102,0.0131,0.0133,0.0135,0,0,0,0,0,0,0,0,0,0,0,0,0,0.0052,0.0052,0.0088,0.0089,0.009,0.0136,0.0136,0.0137,0.0106,0.0104,0.0103,0.0101,0.0131,0.0133,0.0135,0,0,0,0,0,0,0,0,0,0,0,0,0,0.0079,0.0052,0.0088,0.0081,0.0081,0.0136,0.0137,0.0137,0.0106,0.0104,0.0102,0.0101,0.013,0.0133,0.0136,0.0192,0,0,0.0145,0.0146,0,0,0,0,0,0,0,0,0.0077,0.008,0.0081,0.0082,0.0082,0.0115,0.0135,0.0155,0.0107,0.0095,0.0102,0.01,0.0127,0.013,0.0141,0.0194,0.0195,0.0145,0.0147,0.0148,0.0149,0,0,0,0,0,0,0,0.0075,0.0078,0.0105,0.0082,0.0083,0.0104,0.0105,0.0139,0.0119,0.0096,0.0094,0.0103,0.0126,0.0138,0.0141,0.0195,0.0145,0.0148,0.0149,0.0151,0.0297,0.0299,0,0,0,0,0,0,0.0071,0.0076,0.0104,0.0107,0.0077,0.0106,0.0107,0.0104,0.0119,0.012,0.0105,0.0101,0.0134,0.0138,0.0142,0.0245,0.0148,0.0151,0.0153,0.0295,0.0298,0.03,0,0,0,0,0,0,0.007,0.0073,0.0102,0.0095,0.01,0.0108,0.0106,0.0106,0.0115,0.0126,0.0126,0.0113,0.0133,0.0138,0.0192,0.0244,0.0152,0.0155,0.0293,0.0296,0.0299,0.0428,0,0,0,0,0,0,0.0068,0.0072,0.0076,0.0094,0.01,0.0165,0.0108,0.0109,0.0125,0.0121,0.0134,0.0135,0.0131,0.0188,0.0195,0.0246,0.0157,0.029,0.0294,0.0298,0.0421,0.0435,0.0447,0,0,0,0,0,0.0067,0.01,0.0076,0.008,0.0103,0.0168,0.0175,0.0172,0.0127,0.0165,0.0162,0.0134,0.0217,0.0194,0.0201,0.0254,0.0288,0.0293,0.0298,0.0415,0.0432,0.0447,0,0,0,0,0,0,0.0096,0.01,0.0074,0.0106,0.014,0.0163,0.0199,0.0179,0.0205,0.0197,0.0175,0.018,0.0243,0.0231,0.0205,0.0304,0.0243,0.025,0.033,0.0346,0.0359,0.0355,0.016,0,0,0,0,0,0.01,0.0115,0.0132,0.0159,0.0178,0.0181,0.0202,0.0206,0.0227,0.0234,0.0242,0.0248,0.0272,0.0293,0.0318,0.0385,0.0345,0.0417,0.0431,0.0442,0.0443,0.0438,0.045,0.0316,0.0316,0.0316,0,0,0.0116,0.0122,0.013,0.0165,0.0184,0.0253,0.019,0.0246,0.0296,0.0237,0.0311,0.0302,0.0299,0.0372,0.0398,0.0369,0.046,0.0448,0.0458,0.0453,0.0444,0.0457,0.0468,0.0319,0.0318,0.0318,0,0,0.0206,0.0166,0.0233,0.0263,0.0309,0.0314,0.033,0.0367,0.0375,0.0445,0.0405,0.0424,0.0476,0.0483,0.0488,0.0588,0.0528,0.0593,0.0666,0.0662,0.0672,0.0681,0.0647,0.0652,0.0602,0.0602,0.0602,0,0.0229,0.0296,0.0269,0.0353,0.0381,0.0344,0.0434,0.0453,0.0503,0.0516,0.0489,0.0536,0.053,0.0591,0.0618,0.062,0.0591,0.0609,0.0679,0.0687,0.0693,0.0656,0.066,0.0609,0.0608,0.0607,0.0607,0,0.0389,0.0429,0.0475,0.0543,0.0579,0.0646,0.0661,0.0694,0.0676,0.0683,0.0734,0.0724,0.074,0.0744,0.0712,0.0765,0.072,0.0694,0.0638,0.0715,0.067,0.0672,0.0619,0.0616,0.0614,0.0613,0,0,0.0463,0.0566,0.0578,0.0623,0.0674,0.0721,0.0793,0.0846,0.0881,0.0901,0.0956,0.0965,0.0918,0.0918,0.0881,0.0872,0.0889,0.0807,0.0803,0.0771,0.0859,0.0824,0.0821,0.0876,0.0877,0.0878,0.0808,0,0.0592,0.0761,0.0774,0.0904,0.0979,0.0948,0.1015,0.1045,0.1047,0.1097,0.1053,0.1098,0.0998,0.1013,0.0985,0.093,0.0899,0.0908,0.079,0.0786,0.0745,0.0824,0.0777,0.0711,0.0809,0.0809,0.0809,0,0.0753,0.0827,0.0986,0.1056,0.1085,0.1148,0.1196,0.1262,0.129,0.1294,0.1294,0.126,0.1257,0.1161,0.1072,0.1083,0.0971,0.0905,0.09,0.0821,0.0754,0.065,0.0709,0.0492,0.081,0.081,0.081,0,0.0825,0.0966,0.1079,0.111,0.1199,0.1239,0.1278,0.1316,0.1378,0.1422,0.1473,0.1427,0.1447,0.1312,0.1156,0.112,0.1049,0.0984,0.0834,0.0829,0.0741,0.0727,0.0574,0.0898,0.0899,0.0899,0.0899,0,0.0949,0.1033,0.1115,0.1173,0.1275,0.1315,0.1419,0.1446,0.1527,0.1629,0.1577,0.1657,0.1487,0.1423,0.1229,0.1054,0.1099,0.0858,0.0822,0.0784,0.0776,0.0542,0.0436,0.0896,0.0897,0.0897,0.0898,0,0.1018,0.1087,0.1198,0.1288,0.1318,0.1386,0.1499,0.1583,0.1651,0.1792,0.1825,0.1848,0.1776,0.1574,0.1386,0.1179,0.0868,0.0906,0.0861,0.0821,0.0466,0.037,0.018,0.0104,0.073,0.0729,0.0728,0,0.108,0.1149,0.1252,0.1308,0.1347,0.145,0.1532,0.1625,0.1733,0.1919,0.2009,0.201,0.2036,0.1749,0.1391,0.1058,0.0843,0.0769,0.0684,0.0455,0.0321,0.0246,0.0192,0.0607,0.0606,0.0604,0.0603,0,0.115,0.1172,0.1245,0.1356,0.1444,0.1565,0.1697,0.1806,0.1959,0.2107,0.2294,0.2347,0.2104,0.1795,0.1348,0.1088,0.0616,0.0727,0.0508,0.0235,0.0126,0.0034,0.0622,0.059,0.0591,0.0592,0.0593,0.0593,0.1165,0.1206,0.129,0.1395,0.1511,0.1673,0.1788,0.1968,0.2178,0.2436,0.2483,0.259,0.2111,0.1523,0.1183,0.047,0.052,0.023,0.0138,0.0087,0.0002,0.0556,0.0478,0.0478,0.0479,0.0479,0.048,0,0.1168,0.1227,0.1328,0.1465,0.1602,0.1665,0.1898,0.205,0.2313,0.254,0.2715,0.2476,0.192,0.1301,0.0381,-0.0049,-0.0201,-0.0293,-0.0431,-0.0452,0.0043,0.0025,-0.0177,-0.0176,-0.0176,-0.0176,-0.0176,-0.0175,0.1177,0.1249,0.1306,0.1513,0.1627,0.1827,0.1968,0.2214,0.241,0.264,0.2666,0.2672,0.2117,0.061,-0.0391,-0.0602,-0.0881,-0.0955,-0.1043,-0.0752,-0.0711,-0.0672,-0.0716,-0.1069,-0.1071,-0.1512,-0.1516,-0.152]}],[{"header":{"parameterUnit":"m.s-1","parameterCategory":2,"la1":30.2991,"la2":30.254,"lo1":-89.0895,"lo2":-89.0444,"dy":0.0017,"dx":0.0017,"nx":28,"ny":28,"refTime":"2025-04-14T21:00:00:Z","depth":"2","parameterNumber":2,"parameterNumberName":"U-component_of_CURRENTS"},"data":[0,0,0,0,0,0,0,0,0,0,0,0,0,0,0,0,0,0,0,0,0,0,0,0,0,0,0,0,0,0,0,0,0,0,0,0,0,0,0,0,0,0,0,0,0,0,0,0,0,0,0,0,0,0,0,0,0,0,0.3206,0.3205,0,0.3309,0.3313,0.3316,0.3413,0.3411,0.3409,0.3408,0.3406,0.3408,0.3409,0,0,0,0,0,0,0,0,0,0,0,0,0,0.2977,0.2984,0.3206,0.3205,0.3203,0.3308,0.3313,0.3317,0.3413,0.3411,0.3409,0.3407,0.3406,0.3408,0.3409,0,0,0,0,0,0,0,0,0,0,0,0,0,0.3108,0.2987,0.3206,0.3241,0.3242,0.3308,0.3313,0.3318,0.3413,0.3411,0.3408,0.3406,0.3405,0.3407,0.341,0.3473,0,0,0.3417,0.3418,0,0,0,0,0,0,0,0,0.3101,0.3121,0.3237,0.3238,0.324,0.3318,0.323,0.3354,0.3414,0.3381,0.3408,0.3405,0.3348,0.3356,0.3426,0.3473,0.3473,0.3417,0.3418,0.3419,0.342,0,0,0,0,0,0,0,0.3092,0.3115,0.3279,0.3235,0.3236,0.3208,0.3229,0.3257,0.34,0.3384,0.3383,0.3346,0.3353,0.3424,0.3426,0.3473,0.3417,0.3419,0.342,0.3421,0.36,0.3604,0,0,0,0,0,0,0.3027,0.3109,0.3275,0.3278,0.3127,0.3213,0.3237,0.3321,0.3402,0.3404,0.3348,0.335,0.3422,0.3423,0.3426,0.3519,0.3419,0.3421,0.3423,0.3597,0.3601,0.3605,0,0,0,0,0,0,0.3024,0.3046,0.327,0.3162,0.3185,0.3217,0.3312,0.3323,0.3398,0.337,0.3376,0.3404,0.342,0.3422,0.3522,0.3517,0.3422,0.3424,0.3593,0.3598,0.3603,0.3695,0,0,0,0,0,0,0.302,0.3049,0.3076,0.3163,0.3187,0.3361,0.3311,0.3326,0.3362,0.3368,0.342,0.3418,0.3418,0.352,0.3524,0.3519,0.3426,0.3589,0.3595,0.3601,0.3687,0.3702,0.3715,0,0,0,0,0,0.3014,0.3094,0.3081,0.3095,0.3234,0.3362,0.3382,0.3408,0.3367,0.3459,0.3494,0.3417,0.3559,0.3528,0.3531,0.3525,0.3586,0.3593,0.3601,0.3681,0.3699,0.3715,0,0,0,0,0,0,0.3019,0.311,0.3098,0.3203,0.3276,0.3367,0.3422,0.3419,0.3527,0.352,0.35,0.3507,0.3598,0.3566,0.3529,0.36,0.3543,0.3552,0.3602,0.3619,0.3633,0.3612,0.3428,0,0,0,0,0,0.3018,0.312,0.318,0.3269,0.331,0.3363,0.3399,0.3429,0.3508,0.3555,0.3578,0.3595,0.3637,0.3632,0.3697,0.3733,0.3727,0.3723,0.3737,0.3748,0.3739,0.3823,0.3843,0.363,0.363,0.363,0,0,0.3032,0.3094,0.3143,0.3272,0.3341,0.3436,0.3397,0.3497,0.3537,0.353,0.3635,0.368,0.3678,0.3758,0.378,0.3715,0.3803,0.3758,0.3768,0.3751,0.3833,0.3854,0.3872,0.3635,0.3634,0.3633,0,0,0.3142,0.3194,0.3315,0.3391,0.3469,0.3501,0.3524,0.3632,0.3652,0.3743,0.3751,0.3813,0.3854,0.3875,0.387,0.3991,0.3916,0.3975,0.3975,0.4058,0.4075,0.4091,0.4084,0.4098,0.393,0.393,0.393,0,0.3121,0.3306,0.3364,0.3496,0.3538,0.3531,0.3651,0.3677,0.3789,0.3797,0.3781,0.3896,0.3902,0.3957,0.3996,0.4015,0.4027,0.3904,0.4074,0.4089,0.4103,0.4093,0.4107,0.3935,0.3935,0.3934,0.3933,0,0.336,0.3451,0.3541,0.3691,0.3763,0.3873,0.3885,0.3943,0.3913,0.3904,0.398,0.4031,0.4077,0.4074,0.4057,0.4143,0.4109,0.4124,0.4023,0.413,0.4112,0.4125,0.3943,0.3941,0.3939,0.3938,0,0,0.3416,0.365,0.3671,0.3708,0.3867,0.392,0.4013,0.4061,0.4052,0.4099,0.4112,0.4183,0.4174,0.4174,0.4172,0.4197,0.4298,0.4182,0.4183,0.4157,0.4429,0.4251,0.4246,0.4353,0.4357,0.436,0.4365,0,0.3555,0.3767,0.389,0.4016,0.4087,0.4136,0.4187,0.4207,0.4209,0.4217,0.4184,0.4227,0.4206,0.4235,0.4269,0.4338,0.4342,0.4291,0.4343,0.4342,0.4159,0.426,0.3964,0.3932,0.4378,0.438,0.4381,0,0.3737,0.382,0.4004,0.4071,0.4117,0.4197,0.4248,0.4314,0.4317,0.4312,0.435,0.4331,0.439,0.4346,0.4464,0.444,0.4432,0.4438,0.444,0.4246,0.419,0.3906,0.3938,0.4402,0.4401,0.4399,0.4398,0,0.3674,0.3869,0.3981,0.4035,0.4151,0.4217,0.4281,0.4337,0.4348,0.4405,0.4438,0.4468,0.452,0.4555,0.4571,0.4543,0.4661,0.463,0.4438,0.4422,0.416,0.4115,0.4681,0.4681,0.4681,0.4681,0.4681,0,0.3738,0.3802,0.3936,0.3982,0.4018,0.4161,0.4225,0.4288,0.4369,0.4373,0.4492,0.4496,0.459,0.4642,0.4616,0.4575,0.4718,0.4444,0.4431,0.4179,0.4138,0.4541,0.4525,0.4681,0.4681,0.4681,0.4681,0,0.3659,0.3796,0.3853,0.3966,0.3998,0.4021,0.4168,0.4175,0.4354,0.44,0.4431,0.455,0.4643,0.4699,0.4749,0.4643,0.4614,0.4546,0.4193,0.4137,0.4284,0.4273,0.4315,0.4309,0.4305,0.43,0.4297,0,0.366,0.3679,0.3775,0.3774,0.384,0.3909,0.3931,0.4104,0.4138,0.4382,0.4355,0.4519,0.4478,0.4525,0.4437,0.4367,0.4506,0.4019,0.3895,0.4273,0.4257,0.4254,0.425,0.3577,0.3568,0.356,0.3554,0,0.3536,0.3574,0.3599,0.3603,0.363,0.367,0.3754,0.3763,0.3976,0.4047,0.4141,0.4159,0.4236,0.4013,0.3974,0.3881,0.4012,0.3856,0.4417,0.3705,0.3575,0.356,0.3581,0.3488,0.3495,0.35,0.3503,0.3506,0.3403,0.3351,0.3373,0.3388,0.3423,0.3443,0.3454,0.3483,0.3507,0.3591,0.3744,0.3711,0.3731,0.3471,0.3355,0.3323,0.3549,0.3394,0.3419,0.3451,0.3355,0.3223,0.3047,0.3051,0.3054,0.3057,0.306,0,0.3176,0.317,0.3146,0.3164,0.3158,0.3286,0.3323,0.3239,0.3181,0.3223,0.3245,0.2947,0.2785,0.2884,0.2702,0.2638,0.2636,0.2557,0.256,0.2627,0.2686,0.2553,0.2032,0.2028,0.2025,0.2022,0,0,0.3049,0.2937,0.2947,0.2905,0.2977,0.2957,0.2991,0.2828,0.2787,0.2563,0.2529,0.2666,0.2773,0.2365,0.2304,0.2158,0.238,0.2074,0.2905,0.2978,0.3033,0.3177,0.3047,0,0,0,0,0]},{"header":{"parameterUnit":"m.s-1","parameterCategory":2,"la1":30.2991,"la2":30.254,"lo1":-89.0895,"lo2":-89.0444,"dy":0.0017,"dx":0.0017,"nx":28,"ny":28,"refTime":"2025-04-14T21:00:00:Z","depth":"2","parameterNumber":3,"parameterNumberName":"V-component_of_CURRENTS"},"data":[0,0,0,0,0,0,0,0,0,0,0,0,0,0,0,0,0,0,0,0,0,0,0,0,0,0,0,0,0,0,0,0,0,0,0,0,0,0,0,0,0,0,0,0,0,0,0,0,0,0,0,0,0,0,0,0,0,0,-0.0176,-0.0176,0,-0.0197,-0.0197,-0.0198,-0.0247,-0.0248,-0.0249,-0.025,-0.0263,-0.0263,-0.0262,0,0,0,0,0,0,0,0,0,0,0,0,0,-0.0144,-0.0145,-0.0176,-0.0176,-0.0176,-0.0197,-0.0197,-0.0198,-0.0247,-0.0248,-0.025,-0.0251,-0.0264,-0.0263,-0.0262,0,0,0,0,0,0,0,0,0,0,0,0,0,-0.0162,-0.0145,-0.0176,-0.0203,-0.0205,-0.0197,-0.0197,-0.0198,-0.0247,-0.0248,-0.025,-0.0251,-0.0264,-0.0263,-0.0262,-0.0228,0,0,-0.026,-0.0259,0,0,0,0,0,0,0,0,-0.0161,-0.0163,-0.0199,-0.0201,-0.0204,-0.022,-0.0191,-0.0207,-0.0247,-0.0232,-0.025,-0.0252,-0.0247,-0.0247,-0.0249,-0.0229,-0.023,-0.026,-0.0259,-0.0259,-0.0259,0,0,0,0,0,0,0,-0.016,-0.0162,-0.0185,-0.0199,-0.0202,-0.0202,-0.0207,-0.0194,-0.0231,-0.0233,-0.0237,-0.0237,-0.0248,-0.025,-0.025,-0.023,-0.026,-0.0259,-0.0258,-0.0258,-0.0142,-0.014,0,0,0,0,0,0,-0.0156,-0.0161,-0.0184,-0.0186,-0.0184,-0.0202,-0.0207,-0.0214,-0.0232,-0.0236,-0.0236,-0.024,-0.0251,-0.0251,-0.0251,-0.0176,-0.0259,-0.0258,-0.0258,-0.0145,-0.0141,-0.0139,0,0,0,0,0,0,-0.0155,-0.0158,-0.0184,-0.0173,-0.0176,-0.0201,-0.0209,-0.0214,-0.0214,-0.0234,-0.0238,-0.0231,-0.0252,-0.0252,-0.0212,-0.0179,-0.0258,-0.0257,-0.0148,-0.0144,-0.014,-0.005,0,0,0,0,0,0,-0.0154,-0.0157,-0.0158,-0.0173,-0.0177,-0.0162,-0.0207,-0.0213,-0.0212,-0.0217,-0.023,-0.0234,-0.0253,-0.0213,-0.0211,-0.0179,-0.0256,-0.0151,-0.0146,-0.0141,-0.0056,-0.0044,-0.0033,0,0,0,0,0,-0.0153,-0.0151,-0.0159,-0.0161,-0.0179,-0.0161,-0.0161,-0.0185,-0.021,-0.0194,-0.0195,-0.0233,-0.0181,-0.0209,-0.0208,-0.0175,-0.0153,-0.0147,-0.0142,-0.0062,-0.0046,-0.0033,0,0,0,0,0,0,-0.0138,-0.0156,-0.0165,-0.0169,-0.0156,-0.0168,-0.016,-0.0174,-0.0164,-0.0167,-0.0195,-0.0195,-0.015,-0.0165,-0.0196,-0.0125,-0.0175,-0.0169,-0.0115,-0.0101,-0.0089,-0.0097,-0.0256,0,0,0,0,0,-0.0133,-0.0139,-0.0141,-0.0139,-0.0132,-0.0141,-0.0139,-0.0146,-0.0141,-0.0141,-0.014,-0.0137,-0.0123,-0.0115,-0.0102,-0.0058,-0.0104,-0.0036,-0.0024,-0.0015,-0.0017,-0.0039,-0.003,-0.0119,-0.012,-0.012,0,0,-0.0122,-0.0136,-0.0136,-0.0136,-0.0132,-0.0097,-0.0143,-0.0125,-0.0094,-0.014,-0.0089,-0.0091,-0.01,-0.0052,-0.0034,-0.0063,-0.0012,-0.0007,0.0001,-0.0007,-0.0032,-0.0024,-0.0017,-0.0116,-0.0116,-0.0117,0,0,-0.0081,-0.0114,-0.0087,-0.007,-0.0055,-0.0064,-0.0053,-0.004,-0.0036,0.0013,-0.001,0.001,0.0039,0.0039,0.0038,0.0126,0.0053,0.0134,0.0184,0.0164,0.017,0.0175,0.0119,0.0118,0.0137,0.0137,0.0137,0,-0.0064,-0.0039,-0.007,-0.0025,-0.0004,-0.0042,0.0017,0.0018,0.0047,0.0065,0.0043,0.0091,0.0078,0.0123,0.0148,0.015,0.0114,0.0126,0.0176,0.018,0.0183,0.0125,0.0123,0.0142,0.0141,0.0141,0.014,0,0.0019,0.0038,0.0058,0.0092,0.0116,0.0151,0.0158,0.018,0.0171,0.0175,0.0226,0.0216,0.0237,0.024,0.0214,0.0248,0.0206,0.0192,0.0131,0.0197,0.0132,0.0128,0.0149,0.0147,0.0146,0.0145,0,0,0.005,0.0105,0.0114,0.0138,0.0179,0.0193,0.0255,0.029,0.032,0.0332,0.0381,0.0389,0.0368,0.0366,0.0344,0.032,0.0302,0.0268,0.0264,0.0197,0.0231,0.0176,0.0165,0.0296,0.0296,0.0296,0.0172,0,0.0126,0.0202,0.0233,0.0306,0.0334,0.0344,0.0391,0.0416,0.0439,0.0475,0.0445,0.0487,0.042,0.0441,0.0404,0.0356,0.0298,0.0335,0.0191,0.0186,0.0116,0.0162,0.0183,0.0073,0.0168,0.0167,0.0166,0,0.0213,0.0228,0.0322,0.0366,0.0387,0.0436,0.049,0.0547,0.0586,0.0608,0.0635,0.0619,0.0613,0.0536,0.0439,0.0469,0.0344,0.0272,0.0266,0.0178,0.0124,0.0027,0.0061,0.0159,0.0159,0.016,0.016,0,0.0212,0.0294,0.0351,0.0375,0.0428,0.0477,0.0517,0.0582,0.0634,0.0712,0.0775,0.0738,0.0757,0.062,0.0483,0.0462,0.0349,0.0302,0.0115,0.0108,0.0078,0.0069,0.018,0.018,0.018,0.018,0.0181,0,0.0259,0.0304,0.0343,0.0367,0.0414,0.0478,0.0571,0.062,0.0712,0.0801,0.0844,0.0891,0.0782,0.0714,0.0527,0.033,0.0379,0.0121,0.0081,0.011,0.0106,0.0145,0.0143,0.0176,0.0177,0.0178,0.0179,0,0.0257,0.0305,0.0343,0.0391,0.042,0.0451,0.0583,0.0654,0.0773,0.0909,0.0947,0.1001,0.0953,0.0818,0.0615,0.0415,0.0215,0.0108,0.0136,0.0102,-0.0043,-0.0039,-0.012,-0.0123,-0.0125,-0.0127,-0.0129,0,0.0274,0.0284,0.0329,0.0364,0.0398,0.0469,0.054,0.0652,0.0761,0.0961,0.1025,0.1057,0.1083,0.0806,0.0502,0.0204,0.0175,-0.0034,-0.0085,-0.0039,-0.0069,-0.0061,-0.0054,-0.0098,-0.01,-0.0101,-0.0102,0,0.025,0.0262,0.028,0.035,0.0423,0.0514,0.0642,0.073,0.0913,0.1091,0.1283,0.1326,0.1087,0.0822,0.0419,0.0188,0.003,-0.0071,0.0003,-0.0022,-0.0027,-0.0054,-0.0046,-0.0111,-0.011,-0.0109,-0.0109,-0.0108,0.0222,0.0221,0.0268,0.0348,0.0447,0.0617,0.0759,0.0932,0.116,0.1463,0.1407,0.1512,0.1138,0.0659,0.0296,-0.0061,-0.0069,-0.023,-0.0223,-0.0215,-0.0186,-0.0194,-0.0307,-0.0307,-0.0307,-0.0308,-0.0308,0,0.0188,0.0226,0.0288,0.0424,0.0577,0.0635,0.0879,0.1072,0.1418,0.1557,0.1733,0.1416,0.1074,0.0691,0.0139,-0.0237,-0.0236,-0.0337,-0.0254,-0.0244,-0.0236,-0.0204,-0.0332,-0.0333,-0.0333,-0.0334,0,0,0.0183,0.0229,0.0286,0.0539,0.0673,0.0932,0.1116,0.1419,0.1588,0.1793,0.1819,0.1701,0.118,0.0772,0.0296,-0.0002,-0.0034,-0.0063,-0.0013,0.0149,0.0163,-0.0155,-0.0093,0,0,0,0,0]}],[{"header":{"parameterUnit":"m.s-1","parameterCategory":2,"la1":30.2991,"la2":30.254,"lo1":-89.0895,"lo2":-89.0444,"dy":0.0017,"dx":0.0017,"nx":28,"ny":28,"refTime":"2025-04-14T21:00:00:Z","depth":"4","parameterNumber":2,"parameterNumberName":"U-component_of_CURRENTS"},"data":[0,0,0,0,0,0,0,0,0,0,0,0,0,0,0,0,0,0,0,0,0,0,0,0,0,0,0,0,0,0,0,0,0,0,0,0,0,0,0,0,0,0,0,0,0,0,0,0,0,0,0,0,0,0,0,0,0,0,0.1112,0.1112,0,0.1012,0.1011,0.1009,0.1007,0.1009,0.1011,0.1013,0.1194,0.1197,0.12,0,0,0,0,0,0,0,0,0,0,0,0,0,0.1263,0.126,0.1112,0.1112,0.1111,0.1013,0.101,0.1008,0.1007,0.101,0.1012,0.1014,0.1193,0.1197,0.12,0,0,0,0,0,0,0,0,0,0,0,0,0,0.1176,0.1259,0.1112,0.1105,0.1104,0.1013,0.101,0.1008,0.1007,0.101,0.1013,0.1016,0.1192,0.1196,0.1201,0.1166,0,0,0.1214,0.1216,0,0,0,0,0,0,0,0,0.1181,0.1169,0.1106,0.1105,0.1104,0.1033,0.113,0.1078,0.1006,0.1034,0.1013,0.1017,0.117,0.1176,0.1134,0.1174,0.1182,0.1214,0.1217,0.1219,0.122,0,0,0,0,0,0,0,0.1187,0.1173,0.1064,0.1106,0.1105,0.1094,0.1085,0.1118,0.1085,0.1032,0.1034,0.1035,0.117,0.1129,0.1139,0.1185,0.1214,0.1218,0.1221,0.1222,0.154,0.1545,0,0,0,0,0,0,0.1214,0.1178,0.1067,0.1062,0.116,0.109,0.1079,0.1046,0.1078,0.1086,0.1033,0.1036,0.112,0.1134,0.1146,0.1391,0.1219,0.1223,0.1225,0.1534,0.1541,0.1547,0,0,0,0,0,0,0.1217,0.1203,0.1071,0.1127,0.1111,0.1085,0.1047,0.1042,0.103,0.1077,0.109,0.1031,0.1123,0.114,0.118,0.1389,0.1225,0.1229,0.1527,0.1536,0.1544,0.1702,0,0,0,0,0,0,0.1221,0.1204,0.12,0.1128,0.1109,0.1021,0.1045,0.1038,0.1029,0.1032,0.108,0.1097,0.1127,0.1173,0.1184,0.1392,0.1232,0.152,0.1531,0.1541,0.1689,0.1715,0.1736,0,0,0,0,0,0.1226,0.1139,0.1199,0.1187,0.1099,0.102,0.1007,0.0996,0.1026,0.0999,0.1039,0.1097,0.1258,0.1175,0.1189,0.1404,0.1514,0.1528,0.1541,0.1678,0.171,0.1736,0,0,0,0,0,0,0.1197,0.1131,0.1194,0.11,0.1097,0.1024,0.0985,0.1002,0.0999,0.1031,0.1078,0.1095,0.118,0.1264,0.1173,0.1534,0.1436,0.1451,0.1537,0.1566,0.1589,0.1508,0.1236,0,0,0,0,0,0.1202,0.1127,0.1114,0.1057,0.1049,0.1041,0.1016,0.1028,0.1015,0.1015,0.1118,0.1219,0.1239,0.1371,0.1366,0.157,0.1519,0.175,0.1774,0.1793,0.1741,0.1786,0.1807,0.159,0.159,0.159,0,0,0.1198,0.114,0.1118,0.1051,0.1041,0.1062,0.1027,0.0992,0.1072,0.1043,0.1213,0.1211,0.1259,0.1426,0.1507,0.156,0.1841,0.181,0.1826,0.176,0.1802,0.1821,0.1839,0.1599,0.1598,0.1596,0,0,0.1107,0.109,0.1014,0.1041,0.1037,0.1044,0.1052,0.1081,0.1141,0.1264,0.1251,0.1345,0.1531,0.1599,0.1644,0.1807,0.1838,0.1934,0.2143,0.2192,0.2207,0.222,0.2212,0.2223,0.2103,0.2104,0.2104,0,0.1119,0.1037,0.099,0.0981,0.1018,0.1059,0.1075,0.1138,0.1226,0.1303,0.1361,0.1539,0.1596,0.1725,0.1831,0.186,0.1873,0.2026,0.2215,0.2227,0.2237,0.2225,0.2234,0.2113,0.2112,0.2111,0.211,0,0.1053,0.1017,0.097,0.1007,0.1038,0.1036,0.1158,0.127,0.1406,0.1519,0.1665,0.1721,0.1858,0.1971,0.1963,0.2143,0.2114,0.2105,0.2121,0.2266,0.2247,0.2254,0.2126,0.2123,0.212,0.2118,0,0,0.0947,0.0925,0.0924,0.0969,0.1061,0.1075,0.1234,0.1355,0.1473,0.1703,0.1862,0.199,0.2066,0.2111,0.2174,0.2315,0.243,0.2329,0.2328,0.2281,0.2526,0.2363,0.2353,0.2494,0.2495,0.2497,0.2491,0,0.0911,0.0907,0.0901,0.0976,0.0996,0.1125,0.1263,0.1435,0.1601,0.181,0.1953,0.208,0.2124,0.2215,0.2355,0.2332,0.2454,0.2428,0.2423,0.242,0.2225,0.2357,0.2503,0.2496,0.2497,0.2498,0.2499,0,0.0841,0.0845,0.0903,0.0968,0.0992,0.1083,0.1298,0.1415,0.1686,0.1836,0.2036,0.214,0.2335,0.2349,0.2468,0.2472,0.2507,0.2522,0.2524,0.2294,0.2268,0.2319,0.2509,0.2509,0.2508,0.2507,0.2506,0,0.0809,0.0817,0.0867,0.0931,0.1059,0.1123,0.1201,0.1442,0.1559,0.184,0.1975,0.2196,0.2312,0.2399,0.2505,0.2512,0.2596,0.2597,0.246,0.2447,0.2516,0.2502,0.2647,0.2647,0.2647,0.2647,0.2647,0,0.0748,0.0769,0.0865,0.0928,0.0998,0.1103,0.121,0.135,0.1565,0.1721,0.1965,0.2103,0.234,0.2462,0.2518,0.2506,0.2613,0.2447,0.2439,0.2592,0.2587,0.2521,0.2507,0.2646,0.2647,0.2647,0.2647,0,0.0672,0.0749,0.0786,0.0925,0.0972,0.1031,0.1166,0.1265,0.1456,0.1654,0.1754,0.2067,0.2203,0.237,0.2506,0.248,0.2497,0.2465,0.2595,0.2597,0.2303,0.2298,0.2277,0.2271,0.2266,0.2262,0.2259,0,0.0631,0.0657,0.0789,0.0823,0.0864,0.0957,0.1036,0.1221,0.1327,0.1609,0.1707,0.1932,0.2126,0.2176,0.2334,0.2393,0.2387,0.2365,0.2341,0.2272,0.2268,0.2271,0.2272,0.2251,0.225,0.2249,0.2247,0,0.0535,0.0597,0.065,0.0728,0.0798,0.086,0.097,0.1055,0.1288,0.1468,0.1669,0.1807,0.1946,0.2092,0.2163,0.2205,0.2364,0.2314,0.2324,0.2301,0.2241,0.2242,0.2249,0.223,0.2233,0.2234,0.2235,0,0.046,0.0461,0.0548,0.0602,0.0677,0.0747,0.0823,0.097,0.1107,0.1448,0.1501,0.1731,0.1939,0.199,0.2052,0.2087,0.2054,0.2003,0.2028,0.2048,0.198,0.1871,0.1727,0,0,0,0,0,0.0383,0.0389,0.0416,0.0486,0.0553,0.0613,0.0786,0.0889,0.1139,0.1251,0.1386,0.153,0.1671,0.178,0.1771,0.1896,0.2023,0.1871,0.1966,0.2137,0.2157,0.2102,0,0,0,0,0,0,0.0338,0.0355,0.0375,0.0378,0.0412,0.0493,0.0607,0.078,0.0868,0.1129,0.1225,0.1403,0.1561,0.1654,0.1728,0.1755,0.1778,0.2005,0.2,0.2126,0.2144,0.216,0.211,0,0,0,0,0]},{"header":{"parameterUnit":"m.s-1","parameterCategory":2,"la1":30.2991,"la2":30.254,"lo1":-89.0895,"lo2":-89.0444,"dy":0.0017,"dx":0.0017,"nx":28,"ny":28,"refTime":"2025-04-14T21:00:00:Z","depth":"4","parameterNumber":3,"parameterNumberName":"V-component_of_CURRENTS"},"data":[0,0,0,0,0,0,0,0,0,0,0,0,0,0,0,0,0,0,0,0,0,0,0,0,0,0,0,0,0,0,0,0,0,0,0,0,0,0,0,0,0,0,0,0,0,0,0,0,0,0,0,0,0,0,0,0,0,0,0.0026,0.0027,0,0.0097,0.0098,0.0099,0.0127,0.0126,0.0126,0.0125,0.0024,0.0022,0.0019,0,0,0,0,0,0,0,0,0,0,0,0,0,-0.0036,-0.0035,0.0026,0.0027,0.0027,0.0097,0.0098,0.0099,0.0127,0.0126,0.0126,0.0125,0.0024,0.0022,0.0019,0,0,0,0,0,0,0,0,0,0,0,0,0,0.0012,-0.0034,0.0026,0.0046,0.0049,0.0096,0.0098,0.01,0.0127,0.0126,0.0125,0.0125,0.0025,0.0022,0.0019,0.0015,0,0,0.0009,0.0007,0,0,0,0,0,0,0,0,0.001,0.0015,0.0043,0.0045,0.0048,0.0099,0.0039,0.0062,0.0127,0.0101,0.0125,0.0124,0.0031,0.0027,0.005,0.001,0.0006,0.0009,0.0007,0.0005,0.0004,0,0,0,0,0,0,0,0.0006,0.0012,0.0058,0.0043,0.0046,0.0069,0.0075,0.0045,0.007,0.0104,0.0105,0.0107,0.0031,0.0054,0.0047,0.0005,0.0009,0.0006,0.0004,0.0002,-0.0125,-0.0127,0,0,0,0,0,0,-0.0012,0.0009,0.0056,0.006,0.0022,0.007,0.0077,0.0086,0.0074,0.0072,0.0107,0.0108,0.006,0.0051,0.0044,-0.001,0.0005,0.0002,0.0,-0.0124,-0.0126,-0.0127,0,0,0,0,0,0,-0.0013,-0.0008,0.0053,0.0032,0.0041,0.0071,0.0082,0.0088,0.0115,0.0078,0.0073,0.0128,0.0059,0.0048,0.0001,-0.0012,0.0001,-0.0002,-0.0122,-0.0124,-0.0126,-0.0088,0,0,0,0,0,0,-0.0015,-0.0009,-0.0001,0.0031,0.0041,0.0096,0.0083,0.009,0.0115,0.0117,0.0093,0.0084,0.0057,0.0006,-0.0002,-0.0017,-0.0005,-0.012,-0.0123,-0.0126,-0.0087,-0.0088,-0.0089,0,0,0,0,0,-0.0017,0.0018,-0.0001,0.0005,0.0049,0.0097,0.0106,0.0126,0.0117,0.0145,0.0099,0.0085,-0.0018,0.0003,-0.0007,-0.0023,-0.0119,-0.0122,-0.0125,-0.0087,-0.0088,-0.0089,0,0,0,0,0,0,0.0004,0.0024,0.0005,0.0044,0.0064,0.01,0.0136,0.0133,0.0128,0.0118,0.0074,0.0061,0.0009,-0.0015,0.0009,-0.0072,-0.0074,-0.0079,-0.0041,-0.0043,-0.0044,-0.0014,-0.0008,0,0,0,0,0,0.0005,0.0032,0.0044,0.0074,0.009,0.0107,0.0128,0.0134,0.0131,0.0132,0.0085,0.0034,-0.0009,-0.0031,-0.0076,-0.0107,-0.0125,-0.013,-0.0131,-0.0131,-0.0116,-0.0157,-0.0159,-0.0138,-0.0138,-0.0138,0,0,0.0013,0.0033,0.0042,0.0079,0.0102,0.0115,0.0122,0.0163,0.0147,0.0114,0.0067,0.0028,-0.0022,-0.0067,-0.0092,-0.0087,-0.015,-0.0135,-0.0134,-0.0119,-0.016,-0.0162,-0.0163,-0.014,-0.0139,-0.0139,0,0,0.0071,0.007,0.0118,0.0126,0.0156,0.0148,0.0156,0.0166,0.0153,0.0107,0.0067,0.0026,-0.0051,-0.0079,-0.0103,-0.0135,-0.0159,-0.0163,-0.0133,-0.0173,-0.0174,-0.0175,-0.0205,-0.0209,-0.0156,-0.0156,-0.0156,0,0.0077,0.0127,0.0139,0.0177,0.0182,0.0156,0.0186,0.0163,0.0135,0.0118,0.0087,-0.0012,-0.0054,-0.0088,-0.0104,-0.0134,-0.0159,-0.0118,-0.0171,-0.0172,-0.0174,-0.0204,-0.0209,-0.0155,-0.0155,-0.0155,-0.0155,0,0.0161,0.0184,0.0219,0.023,0.0238,0.0265,0.0221,0.0191,0.0142,0.0109,0.0053,-0.0003,-0.0049,-0.0081,-0.0103,-0.0135,-0.015,-0.0169,-0.0156,-0.0173,-0.0205,-0.021,-0.0152,-0.0153,-0.0153,-0.0154,0,0,0.0209,0.0265,0.027,0.0286,0.0266,0.0289,0.0236,0.0209,0.0183,0.0111,0.0088,0.0009,-0.001,-0.0038,-0.0071,-0.0105,-0.0145,-0.0136,-0.0139,-0.0144,-0.0229,-0.0231,-0.0238,-0.0174,-0.0175,-0.0175,-0.0246,0,0.0265,0.0347,0.0348,0.0376,0.0406,0.0348,0.0311,0.0265,0.0195,0.0143,0.0086,0.0042,0.0,-0.001,-0.0053,-0.0122,-0.0158,-0.0124,-0.023,-0.0233,-0.0215,-0.0243,-0.0178,-0.0251,-0.0252,-0.0253,-0.0254,0,0.034,0.0381,0.0443,0.0459,0.047,0.0465,0.0411,0.0381,0.0287,0.0239,0.0182,0.0115,0.0062,0.0022,-0.009,-0.0067,-0.014,-0.0199,-0.0203,-0.0217,-0.0245,-0.0234,-0.0264,-0.0263,-0.0262,-0.0262,-0.0261,0,0.0382,0.0443,0.0497,0.0497,0.0499,0.051,0.0501,0.0421,0.0408,0.031,0.0282,0.0186,0.0147,0.0043,-0.0092,-0.0093,-0.0224,-0.0241,-0.0311,-0.0312,-0.0302,-0.03,-0.0322,-0.0322,-0.0322,-0.0321,-0.0321,0,0.043,0.047,0.053,0.0547,0.0602,0.0589,0.0613,0.0563,0.0518,0.0504,0.0364,0.0322,0.0146,0.0036,-0.0077,-0.021,-0.0215,-0.0304,-0.0331,-0.0287,-0.0283,-0.0306,-0.0303,-0.0324,-0.0324,-0.0323,-0.0323,0,0.046,0.0494,0.0561,0.0604,0.063,0.067,0.0716,0.0722,0.0659,0.0633,0.061,0.0431,0.0271,0.0092,-0.0094,-0.0182,-0.0313,-0.0361,-0.0296,-0.0318,-0.0376,-0.0371,-0.0435,-0.0435,-0.0436,-0.0437,-0.0437,0,0.049,0.0531,0.0615,0.0664,0.0694,0.0762,0.0805,0.0794,0.0792,0.0696,0.0686,0.0513,0.0373,0.0119,-0.0076,-0.0301,-0.0335,-0.0398,-0.0392,-0.0368,-0.0388,-0.0382,-0.0376,-0.0438,-0.0438,-0.0438,-0.0438,0,0.0529,0.056,0.0603,0.0709,0.0785,0.0861,0.092,0.0934,0.0898,0.0861,0.0736,0.0557,0.0364,0.0127,-0.0066,-0.0223,-0.0353,-0.0405,-0.0405,-0.0399,-0.0372,-0.0391,-0.0384,-0.044,-0.044,-0.044,-0.044,0,0.0553,0.0592,0.0656,0.0744,0.0837,0.0908,0.0948,0.0953,0.0957,0.0852,0.0817,0.0583,0.0444,0.0167,0.0002,-0.0171,-0.0209,-0.0247,-0.0256,-0.0256,-0.0192,-0.0131,-0.0145,0,0,0,0,0,0.0571,0.061,0.0692,0.0777,0.0866,0.092,0.0989,0.1011,0.0993,0.0925,0.087,0.0684,0.0385,0.0243,0.0072,-0.0011,-0.024,-0.0216,-0.0288,-0.0452,-0.0449,-0.0406,0,0,0,0,0,0,0.0581,0.0646,0.068,0.0776,0.0843,0.094,0.0985,0.0986,0.0939,0.0894,0.0738,0.0655,0.0365,0.0482,0.007,0.0014,-0.0051,-0.0357,-0.036,-0.0453,-0.0451,-0.0449,-0.0403,0,0,0,0,0]}]]